Skip Page Navigation
NASA JPL Caltech
NASA Logo - Jet Propulsion Laboratory + View the NASA Portal
+ Center for Near-Earth Object Studies
JPL Home Earth Solar System Stars & Galaxies Technology
JPL Solar System Dynamics
BODIES ORBITS EPHEMERIDES TOOLS PHYSICAL DATA DISCOVERY FAQ SITE MAP
IMPORTANT: The SSD Announcement email list is now available. Major changes are coming in the near future, including possible hostname and/or URL changes. To be notified of such changes, subscribe to this email list.

Please visit this page for more details.


JPL Small-Body Database Browser
Search: [ help ]  
382300 (2012 VP77)
Classification: Main-belt Asteroid          SPK-ID: 2382300
Ephemeris | Orbit Diagram | Orbital Elements | Mission Design | Physical Parameters | Discovery Circumstances ]

[ show orbit diagram ]
Orbital Elements at Epoch 2459000.5 (2020-May-31.0) TDB
Reference: JPL 22 (heliocentric ecliptic J2000)
 Element Value Uncertainty (1-sigma)   Units 
e .1258990629826659 4.7286e-08  
a 2.567392635994338 2.5728e-08 au
q 2.244160308814054 1.193e-07 au
i 6.544989647396846 5.4926e-06 deg
node 143.7750617908441 5.2635e-05 deg
peri 345.2846199044828 5.8337e-05 deg
M 239.6830681317431 2.7851e-05 deg
tp 2459502.681964847737
(2021-Oct-15.18196485)
0.00011884 TDB
period 1502.577438918901
4.11
2.2586e-05
6.184e-08
d
yr
n .2395883171645507 3.6014e-09 deg/d
Q 2.890624963174623 2.8967e-08 au
  Orbit Determination Parameters
   # obs. used (total)      251  
   data-arc span      10223 days (27.99 yr)  
   first obs. used      1991-10-01  
   last obs. used      2019-09-27  
   planetary ephem.      DE431  
   SB-pert. ephem.      SB431-N16  
   condition code      0  
   norm. resid. RMS      .5964  
   source      ORB  
   producer      Otto Matic  
   solution date      2019-Nov-08 12:37:53  

Additional Information
 Earth MOID = 1.25958 au 
 Jupiter MOID = 2.15164 au 
 T_jup = 3.411 
[ show covariance matrix ]

Ephemeris | Orbit Diagram | Orbital Elements | Mission Design | Physical Parameters | Discovery Circumstances ]

Physical Parameter Table
Parameter Symbol Value Units Sigma Reference Notes
absolute magnitude H 16.4   n/a MPO437564  

382300 (2012 VP77)          Discovered 2006-Apr-19 by Spacewatch at Kitt Peak
Reference: Last Updated: 2013-12-19

Alternate Designations
 2012 VP77 = 2008 YN6 
Ephemeris | Orbit Diagram | Orbital Elements | Mission Design | Physical Parameters | Discovery Circumstances ]
ABOUT SSD CREDITS/AWARDS PRIVACY/COPYRIGHT GLOSSARY LINKS
FirstGov 2020-Jun-04 12:16 UT
(server date/time)  
NASA Home Page
Site Manager:   Ryan S. Park
Webmaster  Alan B. Chamberlin